TimeMST,TemperatureF,Dew PointF,Humidity,Sea Level PressureIn,VisibilityMPH,Wind Direction,Wind SpeedMPH,Gust SpeedMPH,PrecipitationIn,Events,Conditions,WindDirDegrees,DateUTC
12:53 AM,30.0,25.0,82,30.27,10.0,SE,5.8,-,N/A,,Clear,130,2012-11-16 07:53:00
1:53 AM,33.1,26.1,75,30.25,10.0,SE,5.8,-,N/A,,Clear,130,2012-11-16 08:53:00
2:53 AM,32.0,26.1,79,30.24,10.0,East,4.6,-,N/A,,Clear,90,2012-11-16 09:53:00
3:53 AM,33.1,26.1,75,30.22,10.0,ESE,12.7,-,N/A,,Clear,110,2012-11-16 10:53:00
4:53 AM,35.1,25.0,67,30.21,10.0,East,13.8,-,N/A,,Clear,90,2012-11-16 11:53:00
5:53 AM,34.0,26.1,73,30.24,10.0,ENE,4.6,-,N/A,,Clear,70,2012-11-16 12:53:00
6:53 AM,32.0,24.1,73,30.26,10.0,NW,4.6,-,N/A,,Clear,320,2012-11-16 13:53:00
7:53 AM,33.1,25.0,72,30.27,10.0,NNW,6.9,-,N/A,,Clear,340,2012-11-16 14:53:00
8:53 AM,37.0,27.0,67,30.25,10.0,Calm,Calm,-,N/A,,Clear,0,2012-11-16 15:53:00
9:53 AM,39.0,26.1,60,30.26,10.0,WNW,3.5,-,N/A,,Clear,300,2012-11-16 16:53:00
10:53 AM,41.0,26.1,55,30.25,10.0,WNW,4.6,-,N/A,,Mostly Cloudy,290,2012-11-16 17:53:00
11:53 AM,42.1,26.1,53,30.22,10.0,West,3.5,-,N/A,,Overcast,280,2012-11-16 18:53:00
12:53 PM,44.1,25.0,47,30.19,10.0,Calm,Calm,-,N/A,,Mostly Cloudy,0,2012-11-16 19:53:00
1:53 PM,46.0,25.0,44,30.16,10.0,Calm,Calm,-,N/A,,Mostly Cloudy,0,2012-11-16 20:53:00
2:53 PM,46.9,23.0,39,30.14,10.0,SW,3.5,-,N/A,,Overcast,230,2012-11-16 21:53:00
3:53 PM,46.9,25.0,42,30.14,10.0,SW,3.5,-,N/A,,Overcast,230,2012-11-16 22:53:00
4:53 PM,46.9,25.0,42,30.12,10.0,Calm,Calm,-,N/A,,Overcast,0,2012-11-16 23:53:00
5:53 PM,44.1,28.9,55,30.13,10.0,Calm,Calm,-,N/A,,Overcast,0,2012-11-17 00:53:00
6:53 PM,42.1,30.9,65,30.15,10.0,NNE,5.8,-,N/A,,Overcast,30,2012-11-17 01:53:00
7:53 PM,42.1,32.0,67,30.15,10.0,Calm,Calm,-,N/A,,Overcast,0,2012-11-17 02:53:00
8:53 PM,42.1,32.0,67,30.17,10.0,North,4.6,-,N/A,,Overcast,350,2012-11-17 03:53:00
9:53 PM,41.0,34.0,76,30.14,10.0,NNE,9.2,-,0.00,,Overcast,30,2012-11-17 04:53:00
10:53 PM,39.0,30.0,70,30.15,10.0,Calm,Calm,-,N/A,,Scattered Clouds,0,2012-11-17 05:53:00
11:50 PM,39.2,32.0,75,30.18,10.0,NNE,5.8,-,N/A,,Overcast,30,2012-11-17 06:50:00
11:53 PM,39.9,32.0,73,30.16,10.0,NE,4.6,-,N/A,,Overcast,40,2012-11-17 06:53:00